Temperature
29 29 29 29 29 29 29 30 30 29 29 29 28 28 26 25 24 23 23 22 21 20 20 19 19 18 18 18 18 18 17 17 17 17 16 16 16 15 15 15 15 15 15 15
28 29 29 28 29 29 29 29 29 29 28 28 27 26 25 24 23 23 22 21 21 20 19 19 19 18 18 18 18 17 17 17 17 16 16 16 15 15 15 15 15 15 15 14
28 28 28 28 28 28 28 29 29 28 28 27 27 26 24 23 23 22 21 21 20 20 19 19 18 18 18 18 17 17 17 17 16 16 16 15 15 15 15 15 14 14 14 14
27 27 26 28 28 28 28 28 28 28 27 27 26 24 23 22 22 21 21 20 20 20 19 19 18 18 18 17 17 17 17 16 16 16 16 15 15 15 15 14 14 14 14 14
27 26 27 27 27 27 27 27 27 27 26 25 24 25 24 21 20 20 20 19 19 19 19 18 18 17 17 17 17 16 16 16 16 16 16 15 15 15 15 14 14 14 14 14
26 25 26 26 26 26 26 26 25 25 25 24 24 26 25 20 19 19 19 19 19 19 18 18 17 17 17 16 16 16 16 16 15 15 15 15 15 14 14 14 14 14 13 13
25 25 26 25 25 25 25 24 23 23 23 23 23 23 21 19 18 18 18 18 18 18 18 17 17 17 16 16 16 16 15 15 15 15 15 15 14 14 14 14 13 13 13 13
25 25 25 24 24 24 23 21 21 21 21 21 20 19 19 18 17 17 17 17 17 17 17 16 16 16 16 15 15 15 15 14 14 14 14 14 14 14 13 13 13 13 13 13
24 24 22 22 22 21 20 20 20 20 20 19 19 18 18 17 17 16 16 16 16 16 16 16 15 15 15 15 15 14 14 14 14 14 14 14 13 13 13 13 13 13 13 12
22 23 22 21 20 19 19 19 19 19 19 19 18 18 17 16 16 16 16 16 15 15 15 15 15 15 14 14 14 14 14 13 13 13 13 13 13 13 13 12 12 12 12 12
22 22 21 20 19 19 18 18 18 18 18 18 17 17 16 16 15 15 15 15 15 15 15 15 14 14 14 14 14 13 13 13 13 13 13 13 12 12 12 12 12 11 11 11
22 21 21 20 18 18 18 17 17 17 17 17 17 16 16 15 15 15 15 14 14 14 14 14 14 14 14 13 13 13 13 12 13 13 13 13 12 12 12 12 11 11 11 11
19 19 19 18 17 17 17 17 17 17 16 16 16 16 15 15 15 14 14 14 14 14 14 14 14 13 13 13 12 12 12 12 12 12 12 12 12 12 12 12 11 11 11 11
17 17 17 17 17 16 16 16 16 16 16 16 15 15 15 14 14 14 14 13 13 13 13 13 13 13 13 13 12 12 12 12 12 12 12 12 12 12 12 11 11 11 11 10
16 16 17 16 16 16 16 16 16 15 15 15 15 14 14 14 14 13 13 13 13 13 13 13 12 12 12 12 12 11 12 12 11 11 11 11 11 11 11 11 11 11 11 10
16 16 16 16 15 15 15 15 15 15 15 14 14 14 14 13 13 13 13 13 13 13 12 12 12 12 12 11 11 11 11 11 11 11 11 11 11 11 11 11 11 11 10 10
15 15 15 15 15 15 15 15 15 15 14 14 14 13 13 13 13 12 12 12 12 12 12 12 12 11 11 11 11 11 11 11 11 11 11 11 11 11 11 10 10 10 10 10
15 15 15 15 15 15 14 14 14 14 14 13 13 13 13 12 12 12 12 12 12 12 11 11 11 11 11 11 11 11 11 11 11 11 11 10 10 10 10 10 10 10 10 9
14 14 14 14 14 14 14 14 14 13 13 13 12 12 12 12 12 12 12 12 12 12 11 11 11 11 11 11 10 10 10 11 11 10 10 10 10 10 10 10 10 10 9 9
14 14 14 14 13 13 13 13 13 13 12 12 12 12 12 11 11 11 12 12 12 12 11 11 11 11 11 10 10 10 10 10 10 10 10 10 10 10 9 9 9 9 9 9
14 14 13 13 13 13 13 13 13 12 12 12 12 11 11 11 11 11 11 11 11 11 11 11 11 10 10 10 10 10 10 10 10 10 10 10 10 9 9 9 9 9 9 8
13 13 13 13 13 13 13 12 12 12 12 11 11 11 11 11 11 11 11 11 11 11 11 11 11 10 10 10 10 10 10 10 10 10 10 9 9 9 9 9 9 8 8 8
12 12 12 12 12 12 12 12 12 12 11 11 11 11 11 11 11 11 11 11 10 11 11 11 10 10 10 10 10 10 10 10 10 10 9 9 9 9 9 8 8 8 8 8
12 12 12 12 12 12 12 12 11 11 11 11 11 11 11 11 11 11 11 10 10 10 10 10 10 10 10 9 9 9 9 9 9 9 9 9 9 9 8 8 8 8 8 7
11 11 11 12 11 12 11 11 11 11 11 11 11 11 11 11 11 10 10 10 10 10 10 10 10 9 9 9 9 9 9 9 9 9 9 8 8 8 8 8 8 7 7 7
11 11 11 11 11 11 11 11 12 11 11 11 11 11 11 11 10 10 10 10 10 9 9 9 9 9 9 9 9 9 9 9 8 8 8 8 8 7 7 7 7 7 7 6
11 11 11 11 11 11 11 11 11 11 11 11 11 11 11 10 10 10 10 10 9 9 9 9 9 9 9 9 9 8 8 8 8 8 8 8 7 7 7 7 6 6 6 6
Wind_Speed
9 7 7 9 10 10 12 11 11 8 6 4 2 1 0 1 3 4 5 5 6 6 7 7 7 7 6 6 6 5 5 5 4 4 3 3 2 2 1 1 1 1 1 2
10 9 9 10 10 10 10 9 10 8 6 2 1 1 1 2 3 4 4 4 5 6 6 7 7 7 6 6 6 5 5 4 4 4 4 3 3 2 2 1 1 1 2 2
10 9 10 12 10 10 9 8 8 8 4 1 1 1 1 2 2 2 3 3 4 5 6 6 6 6 6 6 6 6 5 4 4 4 3 3 3 3 2 2 2 2 1 1
8 7 12 5 2 6 8 7 6 5 2 2 1 1 1 2 1 1 1 2 3 4 5 5 6 6 5 6 6 5 5 4 4 4 4 3 3 3 3 2 1 1 1 1
8 11 10 5 4 5 8 7 4 4 3 1 1 2 3 3 2 1 1 1 2 3 5 5 6 6 6 5 5 5 4 4 4 4 3 3 3 2 2 1 1 1 1 1
8 11 11 3 1 2 6 8 1 2 2 2 2 5 0 3 2 2 1 1 2 3 4 5 5 6 6 5 4 3 3 3 3 3 3 2 2 2 1 1 1 1 0 1
11 11 7 1 1 3 8 2 2 1 1 2 2 3 2 2 2 2 2 2 2 3 4 4 4 5 5 5 4 3 2 2 2 2 3 2 1 1 1 1 1 0 0 0
10 12 7 3 2 2 2 3 2 2 1 1 1 2 2 2 3 3 3 3 3 3 3 3 4 5 4 4 3 3 3 2 2 2 2 2 2 1 1 1 2 1 1 1
5 3 3 2 1 2 1 1 1 1 1 1 1 1 2 2 3 3 2 3 3 3 4 3 4 4 4 3 3 3 3 3 2 2 2 2 2 2 2 2 2 1 1 1
3 2 1 1 1 1 1 1 1 0 1 2 1 2 2 2 2 2 2 2 2 3 3 3 3 3 3 3 3 3 3 3 2 2 1 1 1 2 2 1 1 1 2 2
5 3 1 1 1 1 1 1 1 1 2 2 2 2 2 1 2 1 2 2 2 2 3 3 3 2 2 3 3 3 2 2 2 2 2 1 1 0 1 0 0 2 2 2
4 1 2 1 1 1 1 1 1 1 2 2 2 2 1 1 1 1 2 2 2 2 3 3 2 2 2 2 3 3 3 2 2 2 1 1 1 1 2 1 2 1 2 3
3 3 2 1 1 1 1 1 1 2 2 1 1 2 2 1 1 1 1 2 2 2 2 2 2 2 2 2 2 2 2 2 2 2 2 2 1 1 0 1 3 4 4 3
2 2 2 2 2 1 1 1 1 2 2 1 1 1 2 2 2 2 1 1 1 2 2 1 1 1 1 1 2 2 2 1 2 2 2 2 2 2 2 2 2 2 3 5
4 4 3 2 2 2 2 2 2 2 2 2 1 1 2 2 1 1 1 1 2 2 1 1 1 0 0 1 2 2 2 2 1 2 2 2 2 2 2 3 3 3 3 2
4 3 3 3 3 2 3 3 2 2 2 2 2 2 2 1 1 1 1 1 1 1 1 1 1 1 1 2 2 2 2 1 2 2 2 2 2 3 3 3 3 3 4 4
5 5 4 4 4 3 3 2 2 2 2 3 3 3 2 2 1 1 1 0 1 1 1 1 1 1 2 2 3 2 2 2 3 4 3 3 3 3 3 3 3 4 4 3
5 4 5 4 3 3 2 2 2 2 2 3 3 3 3 3 2 1 1 0 0 1 1 2 1 2 2 2 3 3 2 2 3 3 3 3 4 4 4 4 4 5 4 3
3 4 4 4 3 3 2 2 2 2 2 3 3 3 3 3 2 2 2 2 2 2 1 1 2 3 2 2 2 3 3 3 3 3 3 3 4 4 4 4 5 5 4 4
2 3 3 3 3 2 2 2 2 2 2 3 3 3 3 2 2 2 2 3 2 1 1 1 2 2 2 2 3 3 3 3 3 3 3 3 4 4 4 4 4 4 4 4
2 3 3 3 2 2 2 2 3 2 2 3 3 3 2 2 2 2 3 3 1 1 1 2 2 2 2 2 4 3 3 3 3 3 3 3 4 4 4 4 5 5 5 5
3 3 3 3 3 3 3 3 3 3 3 3 3 3 3 2 3 3 3 2 1 1 2 2 2 0 1 3 3 3 3 3 3 3 3 4 4 5 5 5 5 5 5 5
3 3 3 3 3 2 2 3 4 4 4 4 3 3 3 3 3 3 3 1 2 2 2 1 1 2 3 4 3 3 3 4 4 4 4 4 4 4 5 5 5 5 5 5
3 3 3 2 2 2 3 3 3 3 3 4 3 4 3 3 3 2 1 2 2 2 2 1 2 3 6 4 3 3 3 3 4 4 4 4 4 4 4 4 5 5 5 6
3 3 2 2 3 3 3 3 3 3 3 3 3 3 3 2 2 1 1 2 2 3 2 2 4 5 5 3 3 3 3 3 4 4 4 4 4 4 4 4 5 5 5 5
2 3 3 3 3 2 3 3 2 2 2 2 1 1 1 1 2 2 2 3 3 3 2 2 3 4 3 3 3 3 3 3 3 3 4 4 4 4 4 4 5 5 5 5
3 3 3 3 3 3 2 2 1 1 1 1 1 1 1 1 2 2 2 2 2 2 2 2 3 3 3 2 2 2 3 3 3 3 3 3 3 4 3 4 4 4 4 5
Wind_Direction
250 258 255 246 239 233 245 260 267 271 271 281 322 338 106 138 143 147 151 158 158 159 156 158 158 160 164 164 164 163 164 164 164 168 171 177 185 194 201 227 249 273 283 290
241 238 243 248 245 239 241 250 254 261 266 327 320 349 122 128 145 154 158 167 167 163 158 163 165 166 166 169 167 167 171 170 166 172 180 189 194 197 207 230 266 276 281 285
245 234 240 239 236 235 234 241 251 255 268 270 283 331 162 148 158 171 177 180 180 177 173 169 168 168 172 172 172 173 176 178 175 180 185 194 203 196 209 230 253 273 287 303
245 231 240 234 218 235 239 241 253 261 275 271 269 264 140 104 120 182 174 178 182 187 179 172 167 170 170 171 174 177 180 183 180 188 191 197 207 212 219 226 227 254 284 287
239 239 238 215 218 235 238 238 258 254 264 288 286 213 138 64 37 17 190 179 184 188 178 166 166 163 160 162 165 172 179 182 188 196 198 203 210 213 216 225 228 230 259 275
239 249 252 228 164 253 247 234 235 261 254 250 241 242 175 38 21 21 42 119 149 162 160 153 159 157 158 159 162 171 180 183 183 188 196 200 204 216 214 217 214 224 231 297
239 247 247 77 62 219 233 242 51 350 285 270 278 319 6 35 50 47 57 81 114 138 144 144 150 155 158 157 162 161 155 159 177 169 171 173 177 184 193 206 196 207 181 240
236 244 236 78 188 239 2 31 31 24 21 20 18 31 53 71 73 70 69 81 98 112 119 132 147 158 160 158 151 146 145 139 140 157 174 151 154 164 184 201 198 205 212 245
250 251 78 77 49 41 14 345 6 18 55 120 139 104 81 79 80 82 85 93 100 110 115 126 144 157 160 149 146 148 146 143 147 144 156 162 173 174 187 214 242 248 262 284
234 208 136 60 59 36 22 5 359 95 143 154 150 127 109 86 81 84 86 98 111 121 123 116 121 136 149 151 154 154 154 162 165 159 150 144 197 198 204 224 245 260 286 298
230 232 228 172 32 30 67 65 90 110 130 144 141 139 120 101 91 88 95 107 125 126 121 113 114 130 143 153 161 164 172 190 190 177 152 158 156 263 198 143 313 281 297 311
250 245 265 248 128 135 136 125 133 144 138 135 134 137 135 115 102 99 108 130 128 121 116 115 122 128 135 161 178 187 196 209 208 193 173 179 156 110 73 130 130 189 267 288
295 311 311 273 194 182 176 164 162 167 155 140 131 134 142 135 122 110 124 139 132 129 127 127 127 126 140 165 190 210 224 222 216 210 194 204 210 212 213 151 183 193 208 224
276 269 231 215 213 200 175 160 159 161 163 148 138 140 138 129 119 106 101 110 128 136 132 127 122 120 141 167 194 212 229 214 237 232 232 239 247 256 258 273 286 276 212 200
248 244 240 216 193 176 171 170 172 174 167 150 144 156 157 148 124 90 81 116 127 136 139 140 136 103 144 185 195 214 228 224 233 252 250 249 250 256 264 270 279 289 284 227
235 225 212 197 195 194 193 192 193 192 184 175 171 165 159 147 121 95 106 151 163 175 184 193 187 200 220 217 212 222 235 269 265 258 255 259 261 265 270 275 282 294 297 301
206 202 195 195 200 204 205 213 217 207 198 193 187 171 159 159 157 133 124 146 184 186 199 213 211 198 215 231 239 247 247 219 224 251 257 267 269 269 275 277 281 283 286 302
221 220 210 205 206 210 214 220 213 196 194 188 183 187 183 183 185 157 132 125 175 177 219 236 222 213 216 233 251 265 262 260 254 262 269 270 278 281 282 280 281 284 288 284
203 202 200 202 208 217 223 223 213 195 190 191 199 204 197 191 179 179 200 227 232 225 204 190 194 224 220 235 258 254 264 268 267 269 270 268 268 276 283 287 292 296 297 296
183 188 190 190 200 209 210 205 197 189 195 197 194 194 196 195 186 196 218 239 255 294 273 249 226 234 226 217 245 251 256 260 263 265 266 266 270 279 287 294 299 300 296 294
202 195 187 187 197 205 204 202 196 189 192 195 194 198 207 215 215 224 237 247 247 268 258 216 228 241 242 248 245 254 258 264 270 276 276 277 280 283 286 291 292 291 290 290
217 201 193 195 199 198 197 200 197 192 191 195 200 202 211 223 230 240 249 263 241 199 237 238 243 102 273 263 250 265 271 271 272 274 275 278 280 282 287 291 291 292 294 296
227 215 204 200 195 194 200 207 204 199 201 206 208 212 224 237 249 252 255 241 220 215 242 259 86 128 249 252 264 269 274 279 284 286 286 287 288 291 293 294 295 296 298 299
226 215 208 200 202 206 214 215 209 209 213 220 218 218 226 231 237 246 261 156 186 220 243 133 157 210 245 254 271 277 281 285 288 293 296 295 292 290 290 291 292 295 297 297
225 217 211 215 220 223 221 217 211 211 219 224 221 213 218 222 228 233 236 217 192 217 244 181 193 235 251 267 270 277 280 290 299 298 296 298 296 296 295 295 299 300 299 299
225 219 212 219 223 222 226 226 225 231 236 227 216 206 199 196 195 203 213 209 211 228 249 245 233 237 252 264 271 280 286 286 284 285 297 299 299 302 302 302 304 304 303 304
220 211 207 213 212 209 210 212 220 236 248 250 233 210 202 207 207 214 229 229 223 232 240 248 249 249 257 267 276 287 293 296 294 294 297 300 300 297 296 294 298 304 307 308
Height
1470 1468 1469 1471 1472 1473 1474 1472 1475 1474 1474 1474 1477 1479 1483 1485 1487 1489 1491 1493 1494 1496 1497 1499 1501 1503 1505 1507 1508 1510 1511 1512 1512 1513 1514 1514 1514 1514 1514 1514 1514 1513 1513 1512
1474 1470 1471 1473 1471 1471 1472 1472 1472 1473 1475 1474 1478 1480 1483 1485 1486 1488 1490 1492 1493 1495 1496 1498 1499 1501 1503 1505 1507 1508 1509 1510 1511 1511 1512 1512 1512 1512 1512 1512 1511 1511 1510 1510
1475 1470 1473 1476 1471 1471 1472 1469 1470 1474 1474 1475 1478 1481 1483 1485 1486 1487 1489 1491 1492 1493 1495 1496 1498 1499 1501 1503 1505 1506 1507 1508 1509 1509 1510 1510 1511 1510 1510 1510 1509 1509 1508 1507
1473 1478 1489 1472 1466 1467 1470 1470 1470 1472 1474 1476 1479 1482 1483 1485 1486 1487 1488 1489 1491 1492 1493 1495 1496 1498 1499 1501 1503 1504 1505 1506 1506 1507 1508 1508 1508 1508 1507 1507 1507 1506 1506 1505
1474 1477 1474 1470 1468 1469 1471 1472 1473 1473 1475 1478 1480 1480 1482 1485 1486 1487 1488 1488 1489 1491 1492 1493 1494 1496 1497 1499 1500 1502 1502 1503 1504 1504 1505 1505 1505 1505 1505 1504 1504 1504 1503 1502
1475 1480 1480 1470 1468 1470 1472 1475 1475 1475 1477 1479 1479 1476 1479 1484 1485 1486 1487 1487 1488 1489 1491 1492 1493 1494 1495 1497 1498 1499 1500 1500 1501 1501 1502 1502 1503 1502 1502 1502 1501 1501 1500 1500
1474 1476 1469 1469 1470 1472 1479 1477 1477 1478 1479 1480 1481 1481 1484 1484 1485 1486 1486 1486 1487 1488 1489 1490 1491 1492 1493 1495 1495 1496 1497 1497 1498 1498 1499 1500 1500 1500 1500 1500 1499 1498 1497 1497
1472 1475 1473 1471 1471 1474 1477 1479 1479 1479 1480 1481 1482 1483 1484 1484 1485 1485 1485 1485 1486 1486 1487 1489 1490 1491 1492 1493 1493 1494 1495 1495 1496 1496 1497 1498 1497 1498 1498 1497 1497 1496 1495 1494
1467 1471 1473 1474 1475 1478 1479 1480 1480 1480 1480 1481 1482 1483 1484 1484 1484 1484 1485 1485 1486 1486 1487 1487 1488 1489 1490 1491 1492 1492 1493 1493 1494 1494 1494 1495 1495 1495 1495 1495 1495 1495 1494 1493
1470 1470 1473 1476 1477 1478 1479 1480 1480 1481 1481 1481 1482 1483 1484 1484 1484 1484 1484 1484 1485 1485 1486 1486 1487 1488 1489 1489 1490 1491 1492 1492 1492 1492 1493 1493 1493 1493 1493 1493 1493 1493 1492 1491
1471 1472 1474 1476 1477 1478 1479 1479 1480 1481 1481 1481 1482 1483 1483 1483 1483 1483 1483 1484 1484 1484 1484 1485 1486 1487 1488 1488 1489 1489 1490 1490 1491 1491 1491 1491 1491 1491 1491 1490 1490 1490 1490 1489
1469 1472 1474 1476 1477 1478 1479 1479 1480 1480 1481 1481 1482 1482 1482 1483 1483 1483 1483 1483 1484 1484 1484 1484 1485 1486 1486 1487 1487 1488 1488 1489 1489 1489 1489 1489 1489 1489 1488 1488 1488 1487 1486 1486
1474 1475 1475 1476 1477 1478 1479 1479 1479 1480 1480 1481 1481 1482 1482 1482 1482 1482 1483 1483 1483 1483 1483 1484 1484 1485 1485 1485 1486 1486 1487 1487 1487 1487 1487 1487 1487 1487 1486 1486 1485 1484 1483 1483
1475 1475 1475 1476 1477 1477 1478 1478 1479 1479 1480 1480 1481 1481 1482 1482 1482 1482 1482 1482 1482 1483 1483 1483 1483 1484 1484 1484 1485 1485 1486 1486 1485 1485 1485 1485 1485 1485 1485 1484 1484 1482 1481 1480
1474 1474 1474 1475 1476 1476 1477 1477 1478 1478 1479 1479 1480 1480 1481 1481 1481 1481 1481 1481 1481 1482 1482 1482 1483 1482 1482 1483 1483 1484 1484 1484 1484 1484 1484 1484 1483 1483 1483 1482 1482 1480 1479 1478
1472 1472 1473 1474 1475 1475 1476 1476 1477 1477 1478 1478 1479 1479 1480 1481 1480 1480 1480 1480 1480 1480 1481 1481 1481 1481 1481 1482 1482 1482 1483 1482 1482 1482 1482 1482 1481 1481 1481 1480 1479 1478 1477 1476
1469 1470 1471 1472 1473 1474 1475 1475 1476 1476 1477 1477 1478 1478 1479 1479 1480 1480 1480 1480 1479 1479 1479 1479 1479 1480 1480 1481 1481 1481 1481 1481 1480 1480 1480 1480 1479 1479 1478 1477 1476 1475 1474 1473
1468 1469 1470 1471 1472 1472 1473 1474 1475 1475 1475 1476 1477 1477 1477 1478 1478 1478 1479 1479 1478 1478 1478 1478 1478 1478 1478 1479 1479 1479 1479 1479 1479 1479 1478 1477 1477 1477 1476 1475 1473 1472 1471 1470
1466 1468 1469 1470 1471 1471 1472 1472 1473 1474 1474 1475 1475 1476 1476 1477 1477 1477 1477 1477 1477 1477 1477 1477 1476 1476 1477 1477 1477 1477 1477 1477 1477 1476 1476 1475 1474 1474 1473 1472 1471 1469 1468 1467
1465 1466 1467 1468 1469 1470 1470 1471 1472 1472 1473 1473 1474 1474 1475 1475 1475 1475 1475 1475 1475 1476 1475 1475 1475 1475 1475 1475 1475 1475 1475 1475 1475 1474 1473 1473 1472 1471 1470 1469 1468 1466 1465 1464
1464 1465 1466 1466 1467 1468 1469 1469 1470 1470 1471 1471 1472 1472 1472 1473 1473 1473 1473 1473 1473 1473 1473 1473 1473 1473 1473 1473 1473 1473 1473 1472 1472 1471 1471 1470 1469 1468 1467 1466 1465 1463 1462 1461
1462 1463 1464 1464 1465 1465 1466 1467 1468 1468 1469 1469 1470 1470 1470 1470 1471 1471 1471 1471 1471 1471 1471 1471 1472 1471 1470 1470 1471 1471 1470 1470 1469 1468 1468 1467 1466 1465 1464 1462 1461 1460 1458 1457
1460 1461 1462 1462 1463 1463 1464 1465 1466 1466 1467 1467 1467 1468 1468 1468 1468 1469 1469 1469 1469 1469 1469 1470 1469 1469 1468 1468 1469 1468 1467 1467 1466 1465 1465 1464 1462 1461 1460 1459 1458 1456 1455 1453
1458 1459 1460 1460 1461 1462 1462 1463 1463 1464 1464 1465 1465 1465 1465 1466 1466 1467 1467 1467 1467 1467 1467 1467 1467 1466 1466 1466 1466 1465 1464 1464 1463 1463 1462 1460 1459 1458 1457 1455 1454 1453 1451 1450
1456 1457 1458 1458 1459 1460 1460 1461 1461 1461 1462 1462 1463 1463 1464 1464 1464 1464 1465 1464 1464 1464 1464 1464 1464 1463 1464 1464 1463 1462 1462 1461 1460 1459 1458 1457 1456 1455 1453 1452 1450 1449 1448 1446
1454 1455 1455 1456 1457 1457 1458 1459 1459 1460 1460 1461 1461 1461 1462 1462 1462 1462 1462 1462 1462 1462 1462 1462 1462 1461 1461 1461 1460 1460 1459 1458 1457 1456 1455 1454 1453 1451 1450 1448 1447 1446 1444 1443
1452 1453 1454 1454 1455 1455 1456 1457 1457 1458 1458 1459 1459 1460 1460 1460 1460 1460 1460 1460 1460 1460 1460 1460 1460 1459 1459 1458 1457 1457 1456 1455 1454 1453 1452 1451 1449 1448 1446 1445 1443 1442 1441 1439